Louisville, KY

12:03 AM EDT on September 26, 2017 (GMT -0400)
Louisville International-Standiford

Weather History for KSDF - December, 2013

Change the Weather History Date:

Friday, December 6, 2013

  Actual Average Record
Temperature  
Mean Temperature 32 °F 40 °F  
Max Temperature 35 °F 49 °F 72 °F (1956)
Min Temperature 28 °F 32 °F 6 °F (1977)
Degree Days  
Heating Degree Days 33 25  
Month to date heating degree days 96 143  
Since 1 July heating degree days 926 878  
Cooling Degree Days 0 0  
Month to date cooling degree days 0 0  
Year to date cooling degree days 1628 1613  
Moisture  
Dew Point 27 °F    
Average Humidity 87    
Maximum Humidity 92    
Minimum Humidity 82    
Precipitation  
Precipitation 0.82 in 0.13 in 2.73 in (1919)
Month to date precipitation 1.38 0.75  
Year to date precipitation 49.55 41.83  
Snow  
Snow 3.50 in 0.10 in 3.50 in (2013)
Month to date snowfall 3.5 0.3  
Since 1 July snowfall 4.0 0.5  
Snow Depth 0.00 in    
Sea Level Pressure  
Sea Level Pressure 30.23 in    
Wind  
Wind Speed 13 mph (North)    
Max Wind Speed 20 mph    
Max Gust Speed 24 mph    
Visibility 4 miles    
Events Rain , Snow    
T = Trace of Precipitation, MM = Missing Value Source: NWS Daily Summary

Daily Weather History Graph

Daily Weather History Graph

Search for Another Location

Airport or City:

Trip Planner

Search our weather history database for the weather conditions in past years. The results will help you decide how hot, cold, wet, or windy it might be!

Date:

Astronomy

Dec. 06, 2013 Rise Set
Actual Time 7:45 AM EST 5:22 PM EST
Civil Twilight 7:16 AM EST 5:52 PM EST
Nautical Twilight 6:43 AM EST 6:24 PM EST
Astronomical Twilight 6:11 AM EST 6:56 PM EST
Moon 10:52 AM EST (12/6) 9:51 PM EST (12/6)
Length of Visible Light 10h 35m
Length of Day
9h 37m
Waxing Crescent, 19% of the Moon is Illuminated
Dec 6
Waxing Crescent
Dec 9
First Quarter
Dec 17
Full
Dec 25
Last Quarter
Jan 1
New

Hourly Weather History & Observations

Time (EST) Temp. Windchill Dew Point Humidity Pressure Visibility Wind Dir Wind Speed Gust Speed Precip Events Conditions
12:25 AM 35.6 °F 27.5 °F 30.2 °F 81% 30.19 in 10.0 mi NNW 11.5 mph 17.3 mph N/A   Overcast
12:33 AM 35.6 °F 26.6 °F 30.2 °F 81% 30.18 in 10.0 mi North 13.8 mph - N/A   Overcast
12:56 AM 34.0 °F 25.5 °F 28.9 °F 82% 30.16 in 10.0 mi North 11.5 mph - N/A   Overcast
1:10 AM 33.8 °F 26.4 °F 28.4 °F 81% 30.16 in 9.0 mi NNE 9.2 mph - 0.00 in Snow Light Snow
1:56 AM 33.1 °F 24.4 °F 30.0 °F 89% 30.13 in 7.0 mi NNE 11.5 mph - 0.00 in Rain Light Rain
2:14 AM 32.0 °F 23.0 °F 28.4 °F 87% 30.17 in 7.0 mi North 11.5 mph - 0.02 in Rain Light Freezing Rain
2:56 AM 32.0 °F 24.2 °F 28.9 °F 88% 30.21 in 7.0 mi NNW 9.2 mph - 0.07 in Rain Light Freezing Rain
3:00 AM 32.0 °F 25.6 °F 28.4 °F 87% 30.21 in 8.0 mi NNW 6.9 mph - 0.00 in Rain Light Freezing Rain
3:14 AM 32.0 °F 21.6 °F 28.4 °F 87% 30.19 in 5.0 mi North 15.0 mph - 0.01 in Rain Light Freezing Rain
3:56 AM 32.0 °F 23.6 °F 28.9 °F 88% 30.21 in 7.0 mi North 10.4 mph - 0.09 in Rain Light Freezing Rain
4:20 AM 32.0 °F 25.6 °F 28.4 °F 87% 30.18 in 7.0 mi NNE 6.9 mph - 0.01 in Rain Light Freezing Rain
4:52 AM 32.0 °F 23.0 °F 28.4 °F 87% 30.16 in 8.0 mi North 11.5 mph - 0.02 in Rain Light Freezing Rain
4:56 AM 32.0 °F 22.1 °F 30.0 °F 92% 30.17 in 8.0 mi North 13.8 mph - 0.02 in Rain Light Freezing Rain
5:19 AM 32.0 °F 24.2 °F 30.2 °F 93% 30.17 in 8.0 mi North 9.2 mph - 0.01 in Rain Light Freezing Rain
5:56 AM 30.9 °F 21.2 °F 28.9 °F 92% 30.18 in 7.0 mi North 12.7 mph - 0.01 in Rain Light Freezing Rain
6:56 AM 30.9 °F 21.2 °F 28.9 °F 92% 30.19 in 9.0 mi North 12.7 mph - 0.00 in Rain Light Freezing Rain
7:56 AM 30.0 °F 19.5 °F 27.0 °F 88% 30.23 in 9.0 mi North 13.8 mph - 0.00 in   Overcast
8:08 AM 30.2 °F 21.3 °F 26.6 °F 86% 30.20 in 8.0 mi North 10.4 mph - N/A   Overcast
8:13 AM 30.2 °F 20.2 °F 26.6 °F 86% 30.19 in 7.0 mi North 12.7 mph - 0.00 in Rain Light Freezing Rain
8:40 AM 30.2 °F 20.8 °F 28.4 °F 93% 30.19 in 6.0 mi North 11.5 mph - 0.00 in Rain Light Freezing Rain
8:50 AM 30.2 °F 18.9 °F 28.4 °F 93% 30.19 in 6.0 mi North 16.1 mph - 0.00 in   Overcast
8:56 AM 30.0 °F 19.5 °F 27.0 °F 88% 30.22 in 7.0 mi North 13.8 mph - 0.00 in   Overcast
9:35 AM 30.2 °F 20.2 °F 26.6 °F 86% 30.22 in 5.0 mi North 12.7 mph - 0.00 in Rain Light Freezing Rain
9:56 AM 30.0 °F 20.0 °F 27.0 °F 88% 30.23 in 5.0 mi North 12.7 mph - 0.00 in Rain Light Freezing Rain
10:31 AM 30.2 °F 19.3 °F 28.4 °F 93% 30.23 in 2.5 mi North 15.0 mph - 0.02 in Rain Light Freezing Rain
10:56 AM 30.0 °F 18.7 °F 28.0 °F 92% 30.23 in 2.5 mi North 16.1 mph - 0.05 in Rain Light Freezing Rain
11:18 AM 30.2 °F 19.8 °F 28.4 °F 93% 30.21 in 4.0 mi North 13.8 mph - 0.03 in Rain Light Freezing Rain
11:56 AM 30.9 °F 20.2 °F 28.0 °F 89% 30.20 in 3.0 mi North 15.0 mph - 0.05 in Rain Light Freezing Rain
12:19 PM 30.2 °F 19.8 °F 28.4 °F 93% 30.21 in 3.0 mi North 13.8 mph 23.0 mph 0.03 in Rain Light Freezing Rain
12:36 PM 30.2 °F 20.2 °F 28.4 °F 93% 30.19 in 3.0 mi North 12.7 mph - 0.04 in Rain Light Freezing Rain
12:45 PM 30.2 °F 19.3 °F 28.4 °F 93% 30.18 in 2.5 mi North 15.0 mph - 0.06 in Rain Light Freezing Rain
12:56 PM 30.9 °F 21.7 °F 28.0 °F 89% 30.18 in 2.5 mi North 11.5 mph - 0.07 in Rain Light Freezing Rain
1:14 PM 30.2 °F 20.2 °F 28.4 °F 93% 30.17 in 3.0 mi North 12.7 mph - 0.01 in Rain Light Freezing Rain
1:56 PM 30.0 °F 18.7 °F 28.0 °F 92% 30.17 in 3.0 mi North 16.1 mph 20.7 mph 0.07 in Rain Light Freezing Rain
2:02 PM 30.2 °F 19.3 °F 28.4 °F 93% 30.17 in 2.5 mi North 15.0 mph - 0.02 in Rain Light Freezing Rain
2:07 PM 30.2 °F 19.8 °F 28.4 °F 93% 30.18 in 2.0 mi North 13.8 mph - 0.03 in   Ice Pellets
2:09 PM 30.2 °F 19.8 °F 26.6 °F 86% 30.18 in 1.8 mi North 13.8 mph - 0.03 in   Ice Pellets
2:18 PM 28.4 °F 15.4 °F 26.6 °F 93% 30.19 in 2.0 mi North 19.6 mph 24.2 mph 0.04 in Snow Light Snow
2:33 PM 28.4 °F 17.5 °F 26.6 °F 93% 30.20 in 1.8 mi North 13.8 mph - 0.06 in Snow Light Snow
2:50 PM 28.4 °F 17.0 °F 26.6 °F 93% 30.17 in 1.2 mi North 15.0 mph - 0.12 in Snow Light Snow
2:56 PM 28.9 °F 17.7 °F 26.1 °F 89% 30.20 in 2.0 mi North 15.0 mph - 0.13 in Snow Light Snow
3:01 PM 28.4 °F 18.5 °F 26.6 °F 93% 30.22 in 2.0 mi NNW 11.5 mph - 0.02 in Snow Light Snow
3:10 PM 28.4 °F 17.0 °F 26.6 °F 93% 30.20 in 3.0 mi North 15.0 mph - 0.03 in Snow Light Snow
3:13 PM 28.4 °F 17.5 °F 26.6 °F 93% 30.20 in 2.0 mi North 13.8 mph - 0.03 in Snow Light Snow
3:25 PM 28.4 °F 17.5 °F 26.6 °F 93% 30.20 in 0.5 mi North 13.8 mph - 0.05 in Snow Snow
3:27 PM 28.4 °F 17.5 °F 26.6 °F 93% 30.20 in 0.2 mi North 13.8 mph - 0.06 in Snow Snow
3:38 PM 28.4 °F 17.5 °F 26.6 °F 93% 30.20 in 0.5 mi North 13.8 mph - 0.10 in Snow Snow
3:49 PM 28.4 °F 18.0 °F 26.6 °F 93% 30.20 in 1.5 mi North 12.7 mph - 0.14 in Snow Light Snow
3:56 PM 28.0 °F 17.5 °F 26.1 °F 92% 30.22 in 1.5 mi North 12.7 mph - 0.15 in Snow Light Snow
4:00 PM 28.4 °F 18.5 °F 26.6 °F 93% 30.21 in 1.5 mi North 11.5 mph - 0.00 in Snow Light Snow
4:08 PM 28.4 °F 19.1 °F 26.6 °F 93% 30.21 in 1.0 mi North 10.4 mph - 0.00 in Snow Light Snow
4:15 PM 28.4 °F 18.5 °F 26.6 °F 93% 30.21 in 0.5 mi North 11.5 mph - 0.02 in Snow Light Snow
4:56 PM 28.0 °F 19.3 °F 26.1 °F 92% 30.24 in 1.2 mi North 9.2 mph - 0.06 in Snow Light Snow
5:27 PM 28.4 °F 19.7 °F 26.6 °F 93% 30.28 in 2.0 mi NNW 9.2 mph - 0.00 in Snow Light Snow
5:45 PM 28.4 °F 19.1 °F 26.6 °F 93% 30.29 in 2.5 mi NNW 10.4 mph - 0.00 in Snow Light Snow
5:56 PM 28.0 °F 17.5 °F 26.1 °F 92% 30.29 in 1.5 mi North 12.7 mph - 0.02 in Snow Light Snow
6:33 PM 28.4 °F 20.4 °F 26.6 °F 93% 30.28 in 2.0 mi North 8.1 mph - 0.02 in Snow Light Snow
6:56 PM 28.0 °F 17.5 °F 25.0 °F 88% 30.30 in 1.5 mi North 12.7 mph - 0.02 in Snow Light Snow
7:07 PM 28.4 °F 19.7 °F 26.6 °F 93% 30.30 in 2.0 mi North 9.2 mph - 0.01 in Snow Light Snow
7:12 PM 28.4 °F 19.7 °F 26.6 °F 93% 30.30 in 2.5 mi North 9.2 mph - 0.01 in Snow Light Snow
7:15 PM 28.4 °F 19.1 °F 26.6 °F 93% 30.29 in 2.0 mi North 10.4 mph - 0.01 in Snow Light Snow
7:20 PM 28.4 °F 18.0 °F 24.8 °F 86% 30.29 in 3.0 mi North 12.7 mph - 0.01 in Snow Light Snow
7:33 PM 28.4 °F 19.7 °F 24.8 °F 86% 30.29 in 4.0 mi North 9.2 mph - 0.01 in   Overcast
7:48 PM 28.4 °F 19.1 °F 24.8 °F 86% 30.30 in 5.0 mi North 10.4 mph - 0.01 in   Overcast
7:56 PM 28.0 °F 17.0 °F 25.0 °F 88% 30.32 in 6.0 mi North 13.8 mph - 0.01 in   Overcast
8:15 PM 28.4 °F 17.5 °F 24.8 °F 86% 30.32 in 5.0 mi North 13.8 mph - N/A   Overcast
8:56 PM 28.0 °F 17.0 °F 25.0 °F 88% 30.36 in 2.0 mi North 13.8 mph - 0.00 in Snow Light Snow
8:59 PM 28.4 °F 18.0 °F 24.8 °F 86% 30.34 in 1.8 mi North 12.7 mph - 0.00 in Snow Light Snow
9:14 PM 28.4 °F 18.5 °F 24.8 °F 86% 30.34 in 2.0 mi North 11.5 mph - 0.00 in Snow Light Snow
9:34 PM 28.4 °F 19.1 °F 24.8 °F 86% 30.35 in 3.0 mi North 10.4 mph - 0.00 in Snow Light Snow
9:56 PM 28.0 °F 18.6 °F 25.0 °F 88% 30.38 in 5.0 mi North 10.4 mph - 0.00 in   Overcast
10:56 PM 28.0 °F 18.1 °F 25.0 °F 88% 30.40 in 4.0 mi North 11.5 mph - N/A   Overcast
11:12 PM 28.4 °F 17.5 °F 24.8 °F 86% 30.39 in 5.0 mi North 13.8 mph - N/A   Overcast
11:56 PM 28.0 °F 17.5 °F 24.1 °F 85% 30.42 in 6.0 mi North 12.7 mph - 0.00 in   Overcast